Greenville, SC

11:51 PM EST on December 03, 2016 (GMT -0500)
Donaldson Center

Weather History for KGYH - August, 2013

Change the Weather History Date:

Friday, August 16, 2013

  Actual Average (KGSP) Record (KGSP)
Temperature  
Mean Temperature 68 °F 79 °F  
Max Temperature 73 °F 89 °F 102 °F (2007)
Min Temperature 62 °F 69 °F 59 °F (1893)
Degree Days  
Heating Degree Days 0 0  
Month to date heating degree days 0  
Since 1 June heating degree days 2  
Since 1 July heating degree days 0  
Cooling Degree Days 2 14  
Month to date cooling degree days 230  
Year to date cooling degree days 1242  
Since 1 June cooling degree days 1041  
Growing Degree Days 18 (Base 50)    
Moisture  
Dew Point 62 °F    
Average Humidity 87    
Maximum Humidity 100    
Minimum Humidity 69    
Precipitation  
Precipitation 0.00 in 0.14 in 2.95 in (1994)
Month to date precipitation 2.39  
Year to date precipitation 30.42  
Snow  
Snow 0.00 in 0.00 in 0.00 in ()
Month to date snowfall 0.0  
Since 1 June snowfall 0.0  
Since 1 July snowfall 0.0  
Snow Depth -    
Sea Level Pressure  
Sea Level Pressure 30.14 in    
Wind  
Wind Speed 7 mph (ENE)    
Max Wind Speed 16 mph    
Max Gust Speed -    
Visibility 10 miles    
Events Rain    
T = Trace of Precipitation, MM = Missing Value Source: NWS Daily Summary

Daily Weather History Graph

Daily Weather History Graph

Search for Another Location

Airport or City:

Trip Planner

Search our weather history database for the weather conditions in past years. The results will help you decide how hot, cold, wet, or windy it might be!

Date:

Astronomy

Aug. 16, 2013 Rise Set
Actual Time 6:50 AM EDT 8:16 PM EDT
Civil Twilight 6:24 AM EDT 8:42 PM EDT
Nautical Twilight 5:52 AM EDT 9:14 PM EDT
Astronomical Twilight 5:18 AM EDT 9:47 PM EDT
Moon 4:29 PM EDT (8/16) 1:56 AM EDT (8/16)
Length of Visible Light 14h 18m
Length of Day
13h 25m
Waxing Gibbous, 74% of the Moon is Illuminated
Aug 16
Waxing Gibbous
Aug 20
Full
Aug 28
Last Quarter
Sep 5
New
Sep 12
First Quarter

Hourly Weather History & Observations

Time (EDT) Temp. Dew Point Humidity Pressure Visibility Wind Dir Wind Speed Gust Speed Precip Events Conditions
12:15 AM 68.0 °F 60.8 °F 78% 30.14 in 10.0 mi ENE 5.8 mph - N/A   Overcast
12:35 AM 68.0 °F 60.8 °F 78% 30.14 in 10.0 mi ENE 8.1 mph - N/A   Overcast
12:55 AM 68.0 °F 59.0 °F 73% 30.13 in 10.0 mi ENE 8.1 mph - N/A   Mostly Cloudy
1:15 AM 68.0 °F 60.8 °F 78% 30.13 in 10.0 mi NE 5.8 mph - N/A   Scattered Clouds
1:55 AM 66.2 °F 60.8 °F 83% 30.13 in 10.0 mi NE 5.8 mph - N/A   Scattered Clouds
2:15 AM 64.4 °F 60.8 °F 88% 30.12 in 10.0 mi NE 8.1 mph - N/A   Scattered Clouds
2:35 AM 64.4 °F 60.8 °F 88% 30.11 in 10.0 mi NE 4.6 mph - N/A   Clear
2:55 AM 64.4 °F 60.8 °F 88% 30.11 in 10.0 mi NE 6.9 mph - N/A   Scattered Clouds
3:15 AM 64.4 °F 60.8 °F 88% 30.11 in 10.0 mi NE 4.6 mph - N/A   Clear
3:35 AM 64.4 °F 60.8 °F 88% 30.11 in 10.0 mi NE 3.5 mph - N/A   Clear
3:55 AM 64.4 °F 60.8 °F 88% 30.10 in 10.0 mi NE 5.8 mph - N/A   Clear
4:15 AM 62.6 °F 60.8 °F 94% 30.11 in 10.0 mi NE 6.9 mph - N/A   Clear
4:35 AM 62.6 °F 60.8 °F 94% 30.11 in 10.0 mi NE 6.9 mph - N/A   Clear
4:55 AM 64.4 °F 60.8 °F 88% 30.11 in 10.0 mi NE 6.9 mph - N/A   Mostly Cloudy
5:15 AM 62.6 °F 60.8 °F 94% 30.11 in 10.0 mi ENE 5.8 mph - N/A   Mostly Cloudy
5:35 AM 62.6 °F 60.8 °F 94% 30.11 in 10.0 mi NE 5.8 mph - N/A   Overcast
5:55 AM 64.4 °F 59.0 °F 83% 30.12 in 10.0 mi NE 4.6 mph - N/A   Mostly Cloudy
6:15 AM 64.4 °F 59.0 °F 83% 30.10 in 10.0 mi NE 9.2 mph - N/A   Overcast
6:47 AM 64.4 °F 60.8 °F 88% 30.12 in 10.0 mi ENE 10.4 mph - N/A   Mostly Cloudy
7:47 AM 64.4 °F 62.6 °F 94% 30.14 in 10.0 mi ENE 6.9 mph - N/A Rain Rain
8:47 AM 62.6 °F 62.6 °F 100% 30.16 in 10.0 mi ENE 5.8 mph - N/A Rain Rain
9:47 AM 62.6 °F 62.6 °F 100% 30.15 in 6.0 mi ENE 10.4 mph - N/A Rain Rain
10:47 AM 64.4 °F 64.4 °F 100% 30.16 in 6.0 mi ENE 11.5 mph - N/A Rain Light Rain
11:47 AM 64.4 °F 64.4 °F 100% 30.16 in 10.0 mi ENE 10.4 mph - N/A Rain Light Rain
12:47 PM 64.4 °F 64.4 °F 100% 30.15 in 10.0 mi ENE 9.2 mph - N/A   Drizzle
1:09 PM 66.2 °F 66.2 °F 100% 30.15 in 10.0 mi ENE 10.4 mph - N/A   Overcast
1:47 PM 66.2 °F 66.2 °F 100% 30.15 in 10.0 mi ENE 10.4 mph - N/A   Overcast
2:47 PM 68.0 °F 66.2 °F 94% 30.13 in 10.0 mi ENE 10.4 mph - N/A   Overcast
3:55 PM 71.6 °F 66.2 °F 83% 30.12 in 10.0 mi ENE 10.4 mph - N/A   Mostly Cloudy
4:47 PM 71.6 °F 62.6 °F 73% 30.11 in 10.0 mi ENE 16.1 mph - N/A   Mostly Cloudy
5:50 PM 73.4 °F 62.6 °F 69% 30.10 in 10.0 mi East 16.1 mph - N/A   Mostly Cloudy
6:47 PM 71.6 °F 60.8 °F 69% 30.11 in 10.0 mi East 9.2 mph - N/A   Scattered Clouds
7:47 PM 69.8 °F 60.8 °F 73% 30.12 in 10.0 mi East 11.5 mph - N/A   Mostly Cloudy
8:47 PM 66.2 °F 60.8 °F 83% 30.15 in 10.0 mi East 6.9 mph - N/A   Mostly Cloudy
9:15 PM 66.2 °F 60.8 °F 83% 30.16 in 10.0 mi East 6.9 mph - N/A   Overcast
9:35 PM 66.2 °F 60.8 °F 83% 30.17 in 10.0 mi East 6.9 mph - N/A   Overcast
9:55 PM 66.2 °F 60.8 °F 83% 30.17 in 10.0 mi East 5.8 mph - N/A   Overcast
10:15 PM 64.4 °F 60.8 °F 88% 30.17 in 10.0 mi East 5.8 mph - N/A   Overcast
10:35 PM 64.4 °F 60.8 °F 88% 30.18 in 10.0 mi East 6.9 mph - N/A   Overcast
10:55 PM 64.4 °F 60.8 °F 88% 30.18 in 10.0 mi East 5.8 mph - N/A   Overcast
11:15 PM 64.4 °F 60.8 °F 88% 30.18 in 10.0 mi East 6.9 mph - N/A   Overcast
11:35 PM 64.4 °F 60.8 °F 88% 30.18 in 10.0 mi East 6.9 mph - N/A   Overcast
11:55 PM 64.4 °F 60.8 °F 88% 30.18 in 10.0 mi ESE 9.2 mph - N/A   Overcast